This demonstration page uses our WeatherBlox Daily Observations layout. Learn more.

Left ArrowRight Arrow

40.97296, -117.73568

Hourly Observations for March 13, 2016

Temp ( °F °C ) Dew Point ( °F °C ) Humidity (%) Winds ( mph kmh ) Pressure ( in mb ) Visibility ( mi km ) Precip ( " mm )
12:56 am 00:56 Cloudy 44 6.7 31 -0.6 60 60 SSE 5 7 29.88 1012 10 16 0.00 0.00
1:56 am 01:56 Cloudy 44 6.7 31 -0.6 60 60 WSW 3 6 29.85 1011 10 16 0.00 0.00
3:56 am 03:56 Cloudy 44 6.7 31 -0.6 60 60 Calm 29.84 1010 10 16 0.00 0.00
4:56 am 04:56 Cloudy with Light Rain 43 6.1 34 1.1 71 71 S 13 20 29.86 1011 10 16 0.00 0.03
5:56 am 05:56 Cloudy with Light Rain 43 6.1 34 1.1 71 71 SSE 10 17 29.86 1011 10 16 0.00 0.03
6:56 am 06:56 Cloudy 43 6.1 33 0.6 68 68 SSE 7 11 29.85 1011 10 16 0.00 0.03
7:56 am 07:56 Cloudy 44 6.7 32 0 63 63 SSE 10 17 29.86 1011 10 16 0.00 0.00
8:56 am 08:56 Cloudy 46 7.8 32 0 58 58 SSE 10 17 29.85 1011 10 16 0.00 0.00
9:56 am 09:56 Cloudy 49 9.4 31 -0.6 50 50 S 18 30 29.84 1011 10 16 0.00 0.00
10:56 am 10:56 Cloudy 50 10 31 -0.6 48 48 S 12 19 29.81 1010 10 16 0.00 0.00
11:56 am 11:56 Cloudy 52 11.1 32 0 47 47 S 14 22 29.80 1009 10 16 0.00 0.00
12:56 pm 12:56 Cloudy 53 11.7 31 -0.6 43 43 S 16 26 29.76 1008 10 16 0.00 0.00
1:56 pm 13:56 Mostly Cloudy 54 12.2 31 -0.6 42 42 SSW 21 33 29.74 1007 10 16 0.00 0.00
2:56 pm 14:56 Cloudy 55 12.8 30 -1.1 38 38 SSW 18 30 29.71 1006 10 16 0.00 0.00
3:56 pm 15:56 Cloudy 54 12.2 31 -0.6 42 42 SW 22 35 29.72 1007 10 16 0.00 0.00
4:56 pm 16:56 Cloudy 53 11.7 30 -1.1 41 41 SW 17 28 29.72 1007 10 16 0.00 0.00
5:56 pm 17:56 Cloudy 52 11.1 31 -0.6 45 45 SSW 15 24 29.71 1006 10 16 0.00 0.00
7:56 pm 19:56 Cloudy 47 8.3 32 0 56 56 SW 12 19 29.72 1006 10 16 0.00 0.00
8:56 pm 20:56 Mostly Cloudy 49 9.4 30 -1.1 48 48 S 17 28 29.69 1006 10 16 0.00 0.00
9:56 pm 21:56 Cloudy 49 9.4 30 -1.1 48 48 SW 31 50 29.69 1005 10 16 0.00 0.00
10:56 pm 22:56 Mostly Clear 48 8.9 31 -0.6 52 52 SW 24 39 29.70 1006 10 16 0.00 0.00
11:56 pm 23:56 Partly Cloudy 47 8.3 32 0 56 56 SW 22 35 29.69 1005 10 16 0.00 0.00

Powered by AerisWeather